Temperature
20 18 17 18 18 19 19 19 18 18 19 18 17 17 17 17 17 17 17 18 18 18 18 18 18 18 17 17 17 17 17 16 16 16 16 16 15 15 15 15 15 15 15 15
17 18 19 19 19 19 19 18 18 18 19 18 17 17 17 17 16 17 17 17 18 18 18 18 18 18 17 17 17 17 17 16 16 16 16 15 15 15 15 15 15 15 15 15
18 18 19 19 19 19 18 18 18 18 18 18 18 17 16 16 17 17 17 17 18 18 18 18 18 17 17 17 17 17 16 16 16 16 16 15 15 15 15 15 15 15 15 15
18 18 19 19 19 19 18 19 19 19 17 16 17 16 16 16 15 15 16 16 17 17 17 18 18 17 17 17 17 17 16 16 16 16 15 15 15 15 15 15 15 15 15 15
18 19 19 19 19 19 19 19 18 18 17 16 16 16 15 15 15 15 15 16 16 17 17 17 17 17 17 17 16 16 16 16 16 16 15 15 15 15 15 15 15 15 15 14
18 19 19 19 20 19 19 17 16 15 15 16 16 16 15 14 15 15 15 16 16 17 17 17 17 17 17 17 16 16 16 16 16 15 15 15 15 15 15 15 15 15 14 14
18 18 18 19 19 18 17 16 15 16 15 15 15 15 15 15 15 15 15 16 16 16 17 17 17 17 17 16 16 16 16 16 15 15 15 15 15 15 15 15 14 14 14 14
17 17 18 18 18 18 17 16 15 16 15 15 15 15 15 15 16 16 16 16 16 16 16 16 16 16 16 16 16 16 16 15 15 15 15 15 15 15 15 14 14 14 14 14
15 16 17 18 18 18 17 15 15 14 15 15 14 15 15 16 15 15 15 16 16 16 16 16 16 16 16 16 16 16 16 15 15 15 15 15 15 14 14 14 14 14 14 14
15 16 16 16 18 17 16 15 13 14 15 15 15 14 14 15 15 15 14 15 15 16 16 16 16 16 16 16 16 15 15 15 15 15 15 14 14 14 14 14 14 14 14 14
15 15 15 16 16 16 16 15 14 13 13 14 14 14 15 14 14 14 14 15 15 16 16 16 16 16 16 16 15 15 15 15 15 15 15 15 14 14 14 14 14 14 14 14
13 12 13 15 15 15 16 15 13 14 14 12 13 14 15 14 14 14 14 15 15 16 16 16 16 15 15 15 15 15 15 15 15 15 14 14 14 14 14 14 14 14 14 14
13 13 13 14 14 15 15 15 13 12 12 11 13 14 14 14 14 14 14 15 15 15 15 15 15 15 15 15 15 15 15 15 15 14 14 14 14 14 14 14 14 14 14 14
13 12 13 14 14 14 14 14 14 13 12 12 12 13 14 13 13 14 14 14 15 15 15 15 15 15 15 15 14 14 14 14 14 14 14 14 14 14 14 14 14 14 14 14
12 12 12 12 13 13 13 13 13 13 12 12 13 13 13 13 13 14 14 14 14 14 14 15 15 14 14 14 14 14 14 14 14 14 14 14 14 14 14 14 13 13 13 13
10 12 12 12 13 12 12 13 13 13 13 12 12 12 13 13 14 14 14 14 14 14 14 14 14 14 14 14 14 14 14 14 14 14 14 13 13 13 13 13 13 13 13 13
10 11 11 11 11 12 12 12 13 13 13 13 12 13 12 12 12 13 13 13 13 13 13 13 13 13 13 13 13 13 13 13 13 13 13 13 13 13 13 13 13 13 13 13
9 9 9 10 11 12 12 13 13 13 13 12 13 12 12 12 13 13 13 13 13 13 13 13 13 13 13 13 13 13 13 12 13 13 13 13 13 13 12 12 12 12 12 12
9 9 9 9 10 11 12 13 12 12 12 12 12 12 12 12 12 12 13 13 13 13 13 13 13 12 12 12 12 12 12 12 12 12 12 12 12 12 12 12 12 12 12 12
9 9 9 9 11 11 12 13 13 12 12 12 12 11 11 11 10 11 12 12 12 12 12 12 12 12 12 12 12 12 11 11 11 12 12 12 12 12 12 12 12 12 12 12
9 8 8 9 9 10 11 12 13 12 12 12 12 12 11 11 11 12 12 12 12 12 12 12 12 11 11 11 11 11 11 11 11 11 11 11 11 11 11 11 11 11 11 11
9 8 8 8 9 10 12 11 11 11 12 12 12 12 12 12 12 11 11 11 11 11 11 11 11 11 11 11 10 10 11 11 11 11 11 11 11 11 11 11 11 11 11 11
8 8 8 8 10 11 11 12 12 13 12 12 12 12 12 11 11 11 11 11 11 11 11 10 10 10 10 10 10 10 10 10 10 10 10 10 10 10 10 10 10 10 10 10
8 8 8 8 9 10 11 12 12 12 12 12 12 11 11 11 11 10 10 10 10 10 10 10 10 10 10 10 10 10 9 9 9 9 10 10 10 10 10 10 10 10 10 10
8 7 7 8 9 10 11 12 12 12 11 11 11 11 11 10 10 10 10 10 10 10 10 9 9 9 9 9 9 9 9 9 9 9 9 9 9 9 9 9 9 9 9 9
7 8 8 9 10 10 11 12 12 11 11 11 11 11 10 10 10 10 9 9 9 9 9 9 9 9 9 9 9 9 9 9 9 9 8 8 8 8 8 8 9 9 9 9
Wind_Speed
4 5 2 6 6 5 4 3 3 4 3 3 4 5 5 3 4 4 4 4 5 4 2 1 2 2 2 3 3 2 3 2 2 1 1 1 1 1 2 2 3 4 5 6
5 2 5 3 3 4 3 2 3 3 0 3 2 3 4 2 4 5 6 5 5 3 1 1 2 2 2 2 2 2 2 2 2 1 1 1 1 1 1 2 3 3 4 5
4 4 1 3 3 3 3 5 5 3 2 2 1 4 3 2 1 0 2 2 3 5 4 3 2 2 2 2 3 3 2 2 1 2 3 3 3 3 2 2 2 2 3 4
2 4 1 2 2 4 4 5 4 3 1 2 1 3 6 3 2 2 2 2 3 3 3 3 3 2 3 3 2 2 3 2 2 3 3 3 2 1 0 0 0 1 2 3
2 1 1 2 3 5 5 1 2 2 2 1 1 2 6 1 3 5 4 3 3 3 3 4 4 3 2 2 2 2 2 2 2 2 3 3 2 1 1 1 2 2 1 2
2 1 1 2 1 2 3 5 5 5 4 1 4 4 5 3 5 4 3 4 3 3 3 2 2 2 1 1 1 2 3 1 1 2 3 3 3 2 2 1 1 1 1 1
4 4 3 0 2 3 4 5 3 4 2 5 2 3 6 5 4 5 5 5 4 3 3 2 2 2 2 2 1 2 2 2 2 2 2 2 3 3 3 2 1 1 0 1
1 5 4 1 3 3 2 6 6 4 4 4 2 4 5 3 2 1 3 4 4 3 3 3 3 3 3 3 2 1 2 2 2 3 2 2 2 2 2 2 2 2 2 2
2 4 4 2 0 5 4 3 5 5 2 1 4 5 5 2 3 3 2 3 3 3 3 2 2 2 2 3 2 2 2 2 3 3 3 2 2 2 2 2 2 2 2 2
3 2 4 5 3 4 4 6 5 4 3 3 4 4 4 4 3 1 1 1 1 1 2 1 1 2 2 2 2 1 2 3 2 2 3 2 3 2 2 2 2 3 2 2
2 2 4 4 1 1 2 3 4 4 4 4 3 5 3 5 5 4 3 2 2 2 2 2 2 2 1 1 1 1 1 1 1 2 2 2 2 2 2 2 3 3 3 2
2 3 1 4 4 2 1 3 5 4 3 4 3 5 4 2 3 3 2 1 1 1 1 1 1 1 0 1 1 1 1 1 2 2 2 2 2 2 2 3 3 3 3 3
3 4 2 5 5 4 2 1 3 3 3 4 4 5 3 2 1 1 1 1 1 0 1 1 1 1 1 1 1 1 2 2 2 1 2 2 2 3 3 4 4 3 3 3
4 3 5 6 5 2 3 3 1 3 3 4 6 6 5 3 3 2 2 2 1 0 0 1 0 0 1 1 1 2 2 2 1 1 2 2 3 4 4 4 3 3 3 4
4 3 3 4 4 3 4 5 4 5 6 7 6 6 8 6 6 4 3 2 0 1 1 0 1 1 1 2 2 2 2 2 2 2 2 3 3 3 3 3 3 3 3 4
3 3 1 3 3 2 4 6 6 6 6 7 6 8 6 4 3 2 2 2 2 2 2 1 1 1 2 2 3 3 3 3 2 2 3 3 2 2 3 3 3 3 3 3
2 3 2 3 5 4 5 7 6 4 5 6 7 7 2 2 3 4 4 3 4 3 2 2 2 3 3 3 3 3 4 3 2 3 3 3 3 3 4 4 3 4 4 4
5 4 2 1 2 5 6 3 3 3 5 5 5 4 3 3 3 3 3 4 4 3 2 3 3 3 3 2 2 2 2 1 2 3 3 3 3 3 3 3 4 4 4 4
4 6 3 2 2 6 7 3 2 3 4 4 5 3 2 0 2 3 3 2 4 4 3 3 3 3 2 2 2 1 1 1 1 2 3 3 3 3 3 3 4 4 3 4
3 4 4 3 3 6 6 3 1 1 4 4 4 4 2 1 0 5 4 2 2 2 2 2 2 1 2 2 2 1 2 2 3 4 5 4 4 4 4 5 5 4 4 5
2 2 3 4 5 7 6 3 1 2 5 2 2 3 4 4 5 4 3 3 3 3 2 2 1 2 2 2 1 2 3 4 6 5 4 4 4 4 4 4 4 3 4 3
5 4 5 5 5 8 3 2 4 6 3 2 2 3 3 4 3 3 4 4 3 3 2 2 1 2 2 2 2 3 4 5 5 4 4 4 4 4 4 3 3 3 3 4
5 7 5 7 7 5 2 4 4 3 3 4 3 3 3 3 4 4 4 4 4 4 3 2 2 3 3 3 3 4 6 4 4 3 4 4 4 4 3 4 4 3 3 4
4 3 3 4 7 6 5 4 4 3 4 5 4 4 4 4 5 5 5 4 4 4 3 3 2 3 4 4 4 5 5 3 3 4 4 4 3 4 3 3 3 4 4 4
5 3 3 6 7 5 5 6 5 4 4 4 4 4 5 5 5 5 5 5 5 4 4 3 3 4 5 5 5 5 4 3 3 4 4 4 4 4 3 3 4 5 5 6
5 6 6 7 7 6 7 6 5 4 5 5 5 5 4 5 6 6 5 5 4 4 4 3 4 4 5 5 5 5 4 3 3 4 4 4 3 3 3 3 3 4 5 7
Wind_Direction
39 76 187 216 202 190 173 187 239 257 232 172 211 245 262 217 191 198 203 209 213 220 228 170 148 122 98 91 101 110 99 95 101 79 78 73 50 29 42 60 83 115 133 139
43 285 243 205 170 158 169 194 259 290 324 167 215 269 274 216 207 207 203 209 209 198 148 143 123 117 116 127 135 127 126 125 125 125 126 118 110 73 64 45 61 82 114 130
179 247 238 146 143 154 201 197 217 235 12 50 79 321 299 302 314 248 206 199 194 184 179 169 145 148 147 169 182 167 155 130 110 93 85 71 57 47 41 34 37 51 98 118
230 271 186 159 205 175 238 229 202 197 142 274 147 268 280 278 293 267 238 204 194 188 171 160 158 167 184 204 188 162 148 130 105 104 108 111 105 109 232 309 8 45 93 114
261 276 161 193 224 185 213 144 135 154 156 335 346 192 284 309 266 264 248 215 205 193 172 171 178 187 187 184 170 156 134 122 114 119 123 120 106 114 70 43 50 36 38 95
256 286 207 209 182 145 131 72 59 51 77 288 250 193 277 251 239 253 230 203 202 188 173 177 174 147 132 117 125 136 135 146 143 130 127 135 132 124 104 74 68 22 8 21
340 334 334 59 79 32 86 92 31 358 0 255 259 194 251 266 251 227 213 196 193 177 163 161 157 164 164 157 160 161 149 164 167 152 151 161 159 163 172 181 188 197 310 286
16 305 313 343 170 173 150 141 161 202 227 278 316 231 260 280 287 225 182 169 166 165 171 179 188 190 191 192 181 158 173 188 184 185 196 186 183 185 198 197 198 211 219 231
164 269 310 331 298 139 136 152 161 139 167 265 283 290 302 350 23 54 100 129 165 185 190 197 194 196 202 198 197 191 194 214 207 205 203 197 206 210 214 214 208 222 233 234
156 259 307 319 45 34 134 143 105 125 168 251 284 276 261 260 268 294 174 185 210 197 192 192 193 202 207 205 203 179 197 218 214 204 209 215 224 226 221 214 221 231 241 244
108 166 320 4 59 237 77 97 113 123 157 170 253 274 239 222 219 212 228 220 212 197 200 203 213 223 220 202 173 194 223 223 224 218 223 223 223 217 211 217 235 232 229 225
96 116 293 283 280 283 189 166 150 163 214 179 189 265 300 239 211 194 228 243 225 212 205 182 178 156 181 219 225 227 239 233 233 219 211 226 230 220 222 236 240 233 227 222
116 105 34 343 342 5 38 89 115 117 128 165 186 254 321 34 57 174 205 254 286 329 59 75 89 110 247 266 272 272 262 253 249 221 205 220 229 228 233 244 246 238 227 222
118 119 172 208 237 264 292 279 201 144 173 213 221 241 283 297 281 279 263 249 233 24 88 97 112 252 266 265 266 268 274 266 256 230 215 230 237 234 238 242 240 232 224 218
105 158 221 250 266 257 259 266 244 218 209 210 232 231 251 249 244 246 239 232 248 309 327 296 241 279 297 297 286 276 268 256 233 223 234 248 254 249 250 249 247 236 225 225
86 154 194 300 306 278 270 269 251 243 234 228 239 261 259 249 233 240 230 210 227 261 284 278 255 267 277 279 283 284 280 265 229 230 248 256 257 256 250 248 244 236 231 227
125 142 140 274 305 340 284 258 234 230 228 205 226 245 256 269 245 235 230 221 222 242 258 254 252 252 256 263 261 265 272 270 250 253 259 253 245 252 251 248 239 234 234 225
152 138 144 243 7 248 248 251 209 223 257 227 218 235 219 235 249 257 234 218 228 236 243 256 253 260 266 265 271 275 294 282 258 259 261 258 249 252 253 243 238 239 235 226
168 150 140 147 234 276 285 263 201 213 272 249 222 229 232 265 21 329 279 213 219 233 240 248 247 247 255 266 272 290 322 304 293 279 269 262 249 248 249 250 246 242 235 234
88 122 140 158 203 243 253 274 251 111 278 257 211 206 202 113 293 277 283 256 246 255 270 270 266 261 270 282 284 306 309 304 284 274 267 261 247 238 242 249 249 245 237 236
97 104 168 196 227 261 259 271 87 176 251 266 211 200 188 202 222 255 287 283 266 266 276 276 269 270 267 274 270 283 292 279 274 274 268 258 247 240 241 248 251 247 238 236
186 177 192 175 209 252 251 138 180 228 265 259 232 214 212 233 254 263 265 266 278 286 286 278 276 287 285 263 250 275 277 275 281 282 276 268 261 260 265 249 253 245 230 232
205 198 194 197 219 253 229 218 245 228 247 255 235 234 219 242 259 264 265 262 271 269 274 275 269 286 290 270 250 263 277 288 292 290 284 282 281 270 257 241 244 250 238 233
260 211 194 245 263 262 263 262 267 256 247 248 240 234 224 244 257 267 271 270 272 270 272 272 269 278 283 278 273 270 285 288 288 288 289 284 279 278 272 258 244 238 236 234
235 196 212 251 268 285 273 251 256 269 272 270 266 249 237 239 257 258 261 263 263 263 264 257 257 266 275 283 287 289 289 284 284 285 287 284 274 266 265 262 250 243 238 234
209 199 202 234 239 230 258 266 260 258 264 261 261 269 260 240 243 248 250 253 250 258 263 267 270 270 277 284 288 291 284 270 271 281 282 276 271 260 255 261 282 271 251 255
Height
1517 1522 1528 1526 1525 1526 1529 1533 1535 1532 1526 1529 1531 1531 1528 1527 1527 1528 1528 1529 1530 1531 1533 1535 1535 1536 1537 1537 1537 1537 1537 1537 1537 1537 1537 1537 1537 1538 1539 1539 1540 1541 1541 1542
1523 1526 1521 1521 1522 1525 1528 1533 1534 1530 1525 1528 1532 1531 1527 1526 1526 1526 1526 1527 1529 1530 1532 1533 1534 1535 1536 1536 1536 1537 1537 1537 1537 1537 1537 1538 1538 1538 1539 1540 1540 1541 1542 1542
1524 1522 1518 1520 1523 1527 1529 1532 1532 1531 1528 1528 1532 1535 1530 1526 1526 1526 1526 1526 1527 1529 1530 1532 1533 1534 1535 1536 1536 1537 1537 1537 1537 1538 1538 1538 1538 1538 1539 1539 1540 1541 1541 1542
1522 1518 1518 1520 1523 1524 1531 1524 1525 1528 1534 1540 1536 1548 1534 1528 1527 1526 1525 1526 1526 1527 1529 1531 1532 1533 1534 1535 1536 1536 1537 1537 1538 1538 1538 1538 1538 1538 1538 1539 1539 1540 1541 1542
1522 1518 1519 1521 1520 1521 1523 1521 1524 1528 1534 1541 1539 1545 1540 1530 1529 1525 1524 1524 1525 1526 1528 1529 1531 1532 1533 1534 1535 1536 1536 1537 1537 1537 1538 1538 1538 1538 1539 1539 1539 1540 1541 1541
1519 1517 1517 1517 1516 1518 1520 1525 1530 1535 1540 1549 1541 1545 1543 1534 1527 1524 1523 1523 1524 1525 1527 1529 1530 1532 1533 1533 1534 1535 1535 1536 1537 1537 1538 1538 1538 1538 1538 1538 1539 1539 1540 1541
1523 1519 1516 1516 1518 1520 1523 1535 1549 1550 1555 1552 1540 1543 1540 1526 1522 1521 1521 1521 1523 1524 1526 1528 1529 1530 1531 1532 1533 1533 1534 1535 1536 1537 1537 1537 1538 1538 1538 1538 1538 1539 1539 1540
1531 1532 1520 1516 1518 1523 1525 1532 1549 1555 1557 1551 1541 1544 1533 1523 1520 1519 1519 1521 1523 1524 1525 1527 1528 1529 1530 1531 1532 1533 1533 1534 1535 1535 1536 1537 1537 1537 1537 1537 1538 1538 1538 1539
1534 1532 1519 1517 1516 1519 1526 1532 1532 1545 1547 1552 1547 1539 1529 1521 1521 1520 1520 1521 1522 1523 1525 1526 1527 1528 1529 1530 1531 1531 1532 1533 1533 1534 1535 1536 1536 1536 1536 1536 1537 1537 1537 1538
1528 1533 1524 1519 1517 1519 1522 1528 1538 1544 1551 1554 1547 1542 1538 1526 1524 1522 1521 1521 1521 1523 1524 1525 1526 1527 1528 1529 1530 1530 1531 1532 1532 1533 1534 1534 1535 1535 1535 1535 1535 1535 1536 1536
1527 1533 1530 1525 1525 1526 1526 1530 1535 1543 1545 1553 1554 1545 1525 1523 1522 1522 1521 1521 1521 1522 1523 1524 1525 1526 1527 1528 1528 1529 1529 1530 1531 1531 1532 1532 1533 1533 1533 1533 1533 1534 1534 1534
1529 1535 1538 1531 1524 1523 1524 1527 1534 1542 1545 1548 1551 1545 1521 1520 1520 1520 1521 1521 1521 1522 1522 1522 1524 1525 1526 1526 1527 1527 1528 1528 1529 1529 1530 1530 1531 1531 1531 1531 1531 1531 1532 1532
1528 1536 1542 1538 1534 1528 1527 1527 1531 1537 1543 1549 1549 1540 1521 1520 1520 1520 1520 1520 1521 1521 1521 1522 1522 1523 1524 1524 1525 1525 1526 1526 1527 1527 1528 1528 1528 1528 1528 1528 1529 1529 1529 1530
1526 1534 1540 1542 1537 1533 1531 1529 1530 1535 1543 1544 1540 1532 1524 1521 1520 1520 1520 1520 1520 1520 1520 1520 1521 1521 1522 1522 1523 1523 1524 1524 1525 1525 1525 1525 1525 1525 1525 1525 1525 1526 1526 1527
1526 1534 1534 1533 1531 1530 1531 1529 1529 1531 1533 1536 1531 1528 1522 1520 1519 1519 1519 1519 1519 1519 1519 1519 1519 1519 1519 1520 1520 1520 1521 1521 1522 1522 1522 1522 1522 1522 1522 1522 1522 1522 1523 1524
1528 1533 1533 1533 1530 1530 1530 1527 1526 1526 1526 1527 1526 1524 1518 1517 1517 1517 1517 1517 1517 1517 1518 1518 1517 1517 1517 1517 1517 1517 1517 1518 1518 1518 1518 1519 1519 1519 1519 1519 1519 1519 1519 1520
1531 1533 1537 1539 1533 1529 1531 1523 1522 1522 1520 1521 1523 1519 1516 1516 1515 1515 1515 1515 1515 1515 1516 1516 1515 1515 1515 1515 1514 1514 1514 1514 1514 1514 1514 1515 1515 1515 1515 1515 1515 1515 1515 1516
1530 1534 1539 1540 1536 1538 1525 1516 1516 1517 1516 1515 1514 1514 1514 1514 1513 1513 1513 1513 1513 1513 1513 1513 1513 1513 1513 1512 1512 1511 1511 1510 1510 1510 1510 1510 1511 1511 1511 1511 1511 1511 1511 1512
1524 1530 1538 1542 1540 1532 1521 1515 1515 1516 1516 1512 1512 1512 1512 1511 1511 1511 1511 1511 1511 1511 1511 1511 1511 1511 1510 1510 1509 1508 1507 1507 1507 1507 1507 1507 1507 1506 1506 1506 1507 1507 1507 1507
1525 1527 1535 1539 1537 1533 1520 1512 1511 1515 1516 1510 1509 1509 1510 1510 1514 1511 1509 1509 1509 1509 1509 1508 1508 1508 1507 1506 1506 1505 1504 1504 1503 1503 1503 1503 1503 1502 1502 1502 1502 1502 1503 1503
1529 1532 1535 1536 1535 1526 1514 1511 1512 1520 1515 1508 1507 1507 1508 1508 1509 1508 1508 1507 1507 1506 1506 1506 1505 1504 1504 1503 1503 1501 1500 1500 1499 1499 1499 1498 1498 1498 1498 1498 1497 1497 1498 1498
1527 1531 1533 1534 1533 1526 1510 1510 1513 1512 1507 1506 1506 1506 1506 1505 1505 1505 1505 1504 1504 1503 1503 1503 1502 1501 1500 1500 1499 1497 1496 1496 1496 1495 1494 1493 1493 1493 1493 1492 1492 1492 1492 1492
1522 1521 1521 1522 1519 1510 1507 1507 1507 1506 1505 1504 1504 1504 1504 1503 1503 1502 1502 1501 1500 1500 1499 1499 1498 1497 1497 1496 1495 1494 1493 1492 1491 1490 1489 1488 1487 1487 1487 1487 1486 1486 1487 1487
1517 1515 1516 1515 1509 1506 1505 1504 1504 1504 1503 1502 1502 1501 1501 1500 1499 1499 1498 1497 1497 1496 1496 1495 1494 1493 1492 1492 1491 1490 1489 1488 1486 1485 1484 1483 1482 1481 1481 1481 1481 1481 1481 1481
1513 1513 1512 1511 1506 1503 1501 1501 1501 1500 1500 1499 1499 1498 1498 1497 1495 1495 1494 1494 1493 1493 1492 1491 1491 1489 1489 1488 1487 1486 1485 1483 1481 1480 1479 1478 1477 1476 1476 1475 1475 1475 1475 1476
1507 1507 1508 1505 1501 1501 1499 1498 1497 1497 1496 1496 1495 1494 1494 1493 1492 1491 1491 1490 1490 1489 1488 1487 1487 1486 1485 1484 1482 1481 1480 1479 1477 1475 1474 1473 1472 1471 1470 1470 1469 1469 1470 1470